Location: Govalap?lem
(16.2534°N, 80.5665°E)
Time: 02:56:15
(UTC+00:00)

Daily predictions for brighter satellites

Satellite Brightness Start Highest point End
(mag) Time Altitude Azimuth Time Altitude Azimuth Time Altitude Azimuth
Lacrosse 5 3.1 00:01:45 17° W 00:03:57 23° WSW 00:07:55 10° S
Cosmos 1733 Rocket 4.2 00:00:08 10° SSE 00:04:16 46° E 00:08:24 10° NNE
Cosmos 2279 Rocket 3.9 00:01:14 10° S 00:07:25 79° W 00:13:37 10° N
CZ-4B R/B 3.3 00:02:42 10° NNE 00:08:22 87° WNW 00:14:01 10° SSW
METEOR-M 4.2 00:03:24 10° N 00:08:37 57° WNW 00:13:50 10° SSW
Cosmos 2026 Rocket 4.1 00:06:33 10° N 00:12:48 87° E 00:19:09 10° S
Cosmos 1703 Rocket 3.7 00:09:52 10° NNW 00:14:08 52° W 00:18:21 10° S
Cosmos 1484 Rocket 4.2 00:11:46 10° NNW 00:14:21 17° WNW 00:16:54 10° WSW
GPS 2-15 Rocket1 3.5 00:12:26 14° WNW 00:16:40 58° N 00:21:32 10° E
BREEZE-M DEB (TANK) 2.6 00:15:29 13° WNW 00:17:57 29° WSW 00:19:57 10° S
Cosmos 1943 3.7 00:13:50 10° N 00:19:23 63° ENE 00:24:56 10° SSE
Okean O Rocket 1.8 00:17:19 10° N 00:21:35 50° WNW 00:25:52 10° SSW
Cosmos 1140 Rocket 4.1 00:17:59 10° NW 00:22:44 37° W 00:27:31 10° SSW
Cosmos 1302 Rocket 4.2 00:20:42 10° S 00:25:57 79° ESE 00:31:14 10° NNE
Cosmos 332 Rocket 4.1 00:25:02 10° SSW 00:29:40 44° WNW 00:34:21 10° N
NOSS 3-2 (A) 3.4 00:25:03 10° SW 00:30:16 46° WNW 00:35:48 10° N
SL-16 R/B 4.1 00:34:40 10° W 00:35:32 10° W 00:36:24 10° WSW
Meteor 1-5 Rocket 4.4 00:30:14 10° SSW 00:36:10 73° W 00:42:05 10° N
SKYMED 2 4.0 00:32:04 10° S 00:36:11 43° W 00:40:18 10° NNW
